Вернуться в каталог

CZ-6A DEB

АктивенPO
NORAD 60694·DEBRIS·🇨🇳 China

Запущен Aug 6, 2024 с Taiyuan Satellite Launch Center

Loading…

Ближайшие Пролёты (ближайшие 24 часа)

TLE

СвежийSource: Space-Track

Эпоха: Sep 14, 2026, 11:10 UTC

1 60694U 24140CX  26257.46536119  .00000778  00000-0  37022-3 0  9992
2 60694  89.0053 265.9155 0057129 277.6302  81.8401 14.17648294108553

Отслеживайте CZ-6A DEB в реальном времени с AllMySat

Download on the App Store